| time (UTC) | temp F | wind direction | speed MPH | gust MPH | rain 1hr in | rain 24hr in | rain mn in | humidity % | barometer mb |
| 20260509114806 | 69 | 119 | 2.0 | 3.0 | 0.00 | 0.05 | 0.00 | 93 | 1007.9 |
| 20260509113306 | 69 | 146 | 2.0 | 3.0 | 0.00 | 0.05 | 0.00 | 92 | 1007.6 |
| 20260509110305 | 69 | 150 | 2.0 | 2.0 | 0.00 | 0.22 | 0.00 | 91 | 1007.0 |
| 20260509105306 | 70 | 150 | 2.0 | 3.0 | 0.00 | 0.29 | 0.00 | 92 | 1007.0 |
| 20260509104806 | 70 | 151 | 1.0 | 3.0 | 0.00 | 0.46 | 0.00 | 92 | 1007.0 |
| 20260509104306 | 70 | 151 | 1.0 | 5.0 | 0.00 | 0.47 | 0.00 | 91 | 1006.8 |
| 20260509103805 | 70 | 151 | 2.0 | 5.0 | 0.00 | 0.48 | 0.00 | 91 | 1006.8 |
| 20260509102805 | 70 | 126 | 2.0 | 6.0 | 0.00 | 0.48 | 0.00 | 91 | 1006.8 |
| 20260509102306 | 70 | 129 | 2.0 | 6.0 | 0.00 | 0.49 | 0.00 | 91 | 1006.8 |
| 20260509100805 | 70 | 152 | 3.0 | 6.0 | 0.00 | 0.55 | 0.00 | 91 | 1006.7 |
| 20260509100306 | 70 | 142 | 3.0 | 8.0 | 0.00 | 0.55 | 0.00 | 91 | 1006.7 |
| 20260509095805 | 70 | 102 | 2.0 | 7.0 | 0.00 | 0.55 | 0.00 | 91 | 1006.7 |
| 20260509094805 | 70 | 77 | 2.0 | 5.0 | 0.00 | 0.55 | 0.00 | 91 | 1006.7 |
| 20260509093806 | 70 | 58 | 1.0 | 3.0 | 0.00 | 0.55 | 0.00 | 91 | 1006.6 |
| 20260509093306 | 70 | 57 | 2.0 | 3.0 | 0.00 | 0.55 | 0.00 | 91 | 1006.8 |
| 20260509092806 | 70 | 16 | 1.0 | 3.0 | 0.00 | 0.55 | 0.00 | 91 | 1006.8 |
| 20260509091305 | 70 | 18 | 2.0 | 3.0 | 0.00 | 0.55 | 0.00 | 91 | 1006.5 |
| 20260509090806 | 70 | 21 | 2.0 | 3.0 | 0.00 | 0.55 | 0.00 | 90 | 1006.5 |
| 20260509090305 | 70 | 151 | 1.0 | 6.0 | 0.00 | 0.56 | 0.00 | 90 | 1005.8 |
| 20260509085806 | 70 | 87 | 4.0 | 9.0 | 0.00 | 0.56 | 0.00 | 90 | 1005.4 |
| 20260509085306 | 70 | 111 | 6.0 | 13.0 | 0.00 | 0.56 | 0.00 | 90 | 1005.4 |
| 20260509084805 | 70 | 135 | 4.0 | 12.0 | 0.00 | 0.56 | 0.00 | 90 | 1005.4 |
| 20260509083806 | 70 | 152 | 6.0 | 12.0 | 0.00 | 0.56 | 0.00 | 90 | 1005.6 |
| 20260509083306 | 70 | 157 | 7.0 | 16.0 | 0.00 | 0.56 | 0.00 | 90 | 1005.7 |
| 20260509081805 | 70 | 162 | 7.0 | 12.0 | 0.00 | 0.57 | 0.00 | 90 | 1006.1 |
| 20260509081306 | 70 | 167 | 7.0 | 12.0 | 0.00 | 0.57 | 0.00 | 90 | 1006.1 |
| 20260509075805 | 70 | 153 | 5.0 | 8.0 | 0.00 | 0.59 | 0.00 | 89 | 1007.1 |
| 20260509074305 | 70 | 169 | 5.0 | 12.0 | 0.00 | 0.74 | 0.00 | 89 | 1007.7 |
| 20260509073805 | 70 | 165 | 5.0 | 9.0 | 0.00 | 0.74 | 0.00 | 89 | 1007.7 |
| 20260509072805 | 70 | 173 | 5.0 | 12.0 | 0.00 | 0.74 | 0.00 | 89 | 1007.9 |
| 20260509072306 | 70 | 187 | 3.0 | 7.0 | 0.00 | 0.74 | 0.00 | 89 | 1008.1 |
| 20260509071805 | 70 | 194 | 5.0 | 9.0 | 0.00 | 0.74 | 0.00 | 88 | 1008.1 |
| 20260509071305 | 70 | 202 | 3.0 | 7.0 | 0.00 | 0.74 | 0.00 | 89 | 1008.4 |
| 20260509070305 | 70 | 189 | 3.0 | 7.0 | 0.00 | 0.74 | 0.00 | 88 | 1008.3 |
| 20260509065805 | 70 | 206 | 2.0 | 6.0 | 0.00 | 0.74 | 0.00 | 88 | 1008.5 |
| 20260509065306 | 70 | 242 | 1.0 | 5.0 | 0.00 | 0.74 | 0.00 | 88 | 1008.5 |
| 20260509063305 | 70 | 207 | 1.0 | 9.0 | 0.00 | 0.74 | 0.00 | 87 | 1008.2 |
| 20260509061305 | 70 | 183 | 6.0 | 9.0 | 0.00 | 0.74 | 0.00 | 87 | 1008.1 |
| 20260509060805 | 70 | 195 | 4.0 | 7.0 | 0.00 | 0.74 | 0.00 | 86 | 1008.1 |
| 20260509060305 | 70 | 184 | 4.0 | 6.0 | 0.00 | 0.74 | 0.00 | 86 | 1008.1 |
| 20260509052307 | 71 | 208 | 2.0 | 3.0 | 0.00 | 0.74 | 0.00 | 84 | 1008.9 |
| 20260509050933 | 71 | 346 | 2.0 | 6.0 | 0.00 | 0.74 | 0.00 | 84 | 1009.8 |
| 20260509045804 | 71 | 339 | 5.0 | 7.0 | 0.00 | 0.74 | 0.74 | 83 | 1008.6 |
| 20260509045306 | 71 | 224 | 1.0 | 3.0 | 0.00 | 0.74 | 0.74 | 83 | 1008.6 |
| 20260509044805 | 71 | 178 | 1.0 | 6.0 | 0.00 | 0.74 | 0.74 | 83 | 1008.1 |
| 20260509044304 | 71 | 175 | 5.0 | 8.0 | 0.00 | 0.74 | 0.74 | 83 | 1008.1 |
| 20260509043804 | 71 | 157 | 5.0 | 6.0 | 0.00 | 0.74 | 0.74 | 82 | 1008.0 |
| 20260509042805 | 71 | 169 | 4.0 | 12.0 | 0.00 | 0.74 | 0.74 | 82 | 1007.7 |
| 20260509042307 | 71 | 180 | 7.0 | 13.0 | 0.00 | 0.74 | 0.74 | 82 | 1007.7 |
| 20260509035804 | 72 | 169 | 7.0 | 14.0 | 0.00 | 0.74 | 0.74 | 81 | 1008.0 |
| 20260509034805 | 72 | 155 | 5.0 | 12.0 | 0.00 | 0.74 | 0.74 | 81 | 1008.0 |
| 20260509032306 | 72 | 150 | 1.0 | 2.0 | 0.00 | 0.74 | 0.74 | 80 | 1008.6 |
| 20260509031304 | 72 | 148 | 2.0 | 6.0 | 0.00 | 0.74 | 0.74 | 80 | 1008.3 |
| 20260509024304 | 72 | 150 | 5.0 | 8.0 | 0.00 | 0.74 | 0.74 | 81 | 1007.9 |
| 20260509021304 | 72 | 159 | 6.0 | 12.0 | 0.00 | 0.74 | 0.74 | 80 | 1006.8 |
| 20260509020804 | 72 | 171 | 9.0 | 14.0 | 0.00 | 0.74 | 0.74 | 79 | 1006.8 |
| 20260509020304 | 72 | 161 | 7.0 | 12.0 | 0.00 | 0.74 | 0.74 | 79 | 1006.9 |
| 20260509015804 | 72 | 155 | 7.0 | 10.0 | 0.00 | 0.74 | 0.74 | 79 | 1006.8 |
| 20260509014804 | 73 | 164 | 6.0 | 9.0 | 0.00 | 0.74 | 0.74 | 78 | 1006.6 |
| 20260509014308 | 73 | 173 | 6.0 | 9.0 | 0.00 | 0.74 | 0.74 | 78 | 1006.6 |
| 20260509013809 | 73 | 168 | 7.0 | 10.0 | 0.00 | 0.74 | 0.74 | 78 | 1006.6 |
| 20260509013308 | 73 | 167 | 6.0 | 9.0 | 0.00 | 0.74 | 0.74 | 77 | 1006.7 |
| 20260509005809 | 73 | 170 | 6.0 | 12.0 | 0.00 | 0.74 | 0.74 | 76 | 1006.6 |
| 20260509005308 | 74 | 161 | 5.0 | 10.0 | 0.00 | 0.74 | 0.74 | 75 | 1006.6 |
| 20260509004808 | 74 | 166 | 6.0 | 12.0 | 0.00 | 0.74 | 0.74 | 75 | 1006.4 |
| 20260509003308 | 74 | 145 | 5.0 | 9.0 | 0.00 | 0.74 | 0.74 | 74 | 1006.2 |
| 20260509002808 | 74 | 164 | 5.0 | 9.0 | 0.00 | 0.74 | 0.74 | 74 | 1006.2 |
| 20260509001808 | 74 | 159 | 8.0 | 12.0 | 0.00 | 0.74 | 0.74 | 73 | 1006.2 |
| 20260509000808 | 74 | 151 | 6.0 | 10.0 | 0.00 | 0.74 | 0.74 | 73 | 1006.4 |
| 20260508233308 | 75 | 170 | 9.0 | 14.0 | 0.00 | 0.74 | 0.74 | 71 | 1006.6 |
| 20260508230308 | 76 | 169 | 7.0 | 12.0 | 0.00 | 0.74 | 0.74 | 70 | 1006.7 |
| 20260508225308 | 77 | 189 | 6.0 | 12.0 | 0.00 | 0.74 | 0.74 | 70 | 1006.8 |
| 20260508224308 | 77 | 184 | 9.0 | 14.0 | 0.00 | 0.74 | 0.74 | 69 | 1006.7 |
| 20260508223808 | 77 | 197 | 6.0 | 12.0 | 0.00 | 0.74 | 0.74 | 69 | 1006.7 |
| 20260508222808 | 78 | 197 | 5.0 | 10.0 | 0.00 | 0.74 | 0.74 | 68 | 1006.7 |
| 20260508221308 | 78 | 163 | 6.0 | 12.0 | 0.00 | 0.74 | 0.74 | 68 | 1006.6 |
| 20260508215808 | 78 | 202 | 9.0 | 13.0 | 0.00 | 0.74 | 0.74 | 67 | 1006.7 |
| 20260508214308 | 77 | 163 | 10.0 | 16.0 | 0.00 | 0.74 | 0.74 | 66 | 1006.6 |
| 20260508212307 | 77 | 151 | 7.0 | 13.0 | 0.00 | 0.74 | 0.74 | 66 | 1006.7 |
| 20260508204808 | 76 | 207 | 8.0 | 14.0 | 0.00 | 0.74 | 0.74 | 67 | 1008.0 |
| 20260508201808 | 77 | 176 | 5.0 | 12.0 | 0.00 | 0.74 | 0.74 | 66 | 1008.6 |
| 20260508201307 | 77 | 167 | 6.0 | 13.0 | 0.00 | 0.74 | 0.74 | 66 | 1008.6 |
| 20260508200807 | 77 | 149 | 6.0 | 13.0 | 0.00 | 0.74 | 0.74 | 65 | 1008.6 |
| 20260508195307 | 78 | 164 | 7.0 | 13.0 | 0.00 | 0.74 | 0.74 | 64 | 1008.5 |
| 20260508194807 | 78 | 156 | 5.0 | 12.0 | 0.00 | 0.74 | 0.74 | 63 | 1008.6 |
| 20260508194307 | 78 | 167 | 7.0 | 13.0 | 0.00 | 0.74 | 0.74 | 64 | 1008.6 |
| 20260508193807 | 79 | 149 | 6.0 | 12.0 | 0.00 | 0.74 | 0.74 | 63 | 1008.6 |
| 20260508192807 | 79 | 198 | 7.0 | 15.0 | 0.00 | 0.74 | 0.74 | 61 | 1008.9 |
| 20260508184807 | 79 | 147 | 6.0 | 12.0 | 0.00 | 0.74 | 0.74 | 61 | 1009.0 |
| 20260508182807 | 78 | 150 | 4.0 | 12.0 | 0.00 | 0.74 | 0.74 | 60 | 1009.4 |
| 20260508180307 | 77 | 162 | 7.0 | 12.0 | 0.00 | 0.74 | 0.74 | 63 | 1009.9 |
| 20260508174806 | 76 | 107 | 4.0 | 12.0 | 0.00 | 0.74 | 0.74 | 62 | 1009.9 |
| 20260508173807 | 75 | 157 | 4.0 | 8.0 | 0.00 | 0.74 | 0.74 | 64 | 1010.0 |
| 20260508172307 | 74 | 170 | 5.0 | 9.0 | 0.00 | 0.74 | 0.74 | 67 | 1010.4 |
| 20260508171807 | 74 | 197 | 3.0 | 9.0 | 0.00 | 0.74 | 0.74 | 66 | 1010.6 |
| 20260508170307 | 73 | 153 | 5.0 | 10.0 | 0.00 | 0.74 | 0.74 | 67 | 1011.0 |
| 20260508163807 | 71 | 189 | 8.0 | 13.0 | 0.00 | 0.74 | 0.74 | 67 | 1011.6 |
| 20260508162807 | 71 | 166 | 7.0 | 12.0 | 0.00 | 0.74 | 0.74 | 69 | 1011.6 |
| 20260508162307 | 70 | 170 | 6.0 | 10.0 | 0.00 | 0.74 | 0.74 | 71 | 1011.9 |
| 20260508161806 | 69 | 167 | 6.0 | 9.0 | 0.00 | 0.74 | 0.74 | 74 | 1011.9 |
| 20260508160807 | 68 | 162 | 6.0 | 12.0 | 0.00 | 0.74 | 0.74 | 74 | 1011.9 |
| 20260508160306 | 67 | 172 | 6.0 | 14.0 | 0.00 | 0.74 | 0.74 | 74 | 1012.4 |
| 20260508155806 | 68 | 177 | 7.0 | 12.0 | 0.00 | 0.74 | 0.74 | 74 | 1012.4 |
| 20260508153306 | 66 | 159 | 5.0 | 10.0 | 0.00 | 0.74 | 0.74 | 81 | 1012.1 |
| 20260508151807 | 65 | 161 | 5.0 | 8.0 | 0.00 | 0.74 | 0.74 | 90 | 1012.1 |
| 20260508151306 | 64 | 183 | 6.0 | 10.0 | 0.00 | 0.74 | 0.74 | 92 | 1012.3 |
| 20260508150806 | 63 | 165 | 5.0 | 9.0 | 0.00 | 0.74 | 0.74 | 93 | 1012.3 |
| 20260508150306 | 62 | 155 | 4.0 | 9.0 | 0.00 | 0.74 | 0.74 | 94 | 1012.4 |
| 20260508145807 | 62 | 160 | 3.0 | 6.0 | 0.00 | 0.74 | 0.74 | 95 | 1012.4 |
| 20260508145307 | 62 | 189 | 5.0 | 8.0 | 0.00 | 0.74 | 0.74 | 95 | 1012.4 |
| 20260508143306 | 62 | 138 | 0.0 | 5.0 | 0.00 | 0.74 | 0.74 | 95 | 1012.5 |
| 20260508141307 | 61 | 136 | 3.0 | 5.0 | 0.00 | 0.74 | 0.74 | 96 | 1012.6 |
| 20260508133806 | 60 | 144 | 2.0 | 3.0 | 0.05 | 0.74 | 0.74 | 96 | 1012.6 |
| 20260508132807 | 60 | 144 | 2.0 | 5.0 | 0.05 | 0.74 | 0.74 | 95 | 1012.7 |
| 20260508132307 | 60 | 142 | 4.0 | 7.0 | 0.05 | 0.74 | 0.74 | 96 | 1012.5 |
| 20260508131807 | 60 | 147 | 3.0 | 6.0 | 0.05 | 0.74 | 0.74 | 96 | 1012.5 |
| 20260508130306 | 60 | 139 | 5.0 | 10.0 | 0.04 | 0.73 | 0.73 | 95 | 1012.5 |
| 20260508124806 | 60 | 119 | 0.0 | 3.0 | 0.01 | 0.70 | 0.70 | 95 | 1013.1 |
| 20260508124306 | 60 | 132 | 2.0 | 5.0 | 0.00 | 0.69 | 0.69 | 96 | 1013.1 |
| 20260508123806 | 59 | 183 | 0.0 | 2.0 | 0.00 | 0.69 | 0.69 | 95 | 1013.1 |
| 20260508123306 | 59 | 183 | 1.0 | 5.0 | 0.00 | 0.69 | 0.69 | 95 | 1013.1 |
| 20260508120805 | 60 | 144 | 1.0 | 3.0 | 0.08 | 0.69 | 0.69 | 95 | 1013.0 |
| 20260508120306 | 60 | 144 | 0.0 | 3.0 | 0.16 | 0.69 | 0.69 | 95 | 1012.8 |
| 20260508115806 | 60 | 144 | 2.0 | 6.0 | 0.19 | 0.69 | 0.69 | 95 | 1012.6 |